Погода в Чемошуре-Куюке

Россия / Удмуртская Республика     56°09′41″N   52°42′41″E
темп.,
°C
ветер,
м/с
пор.,
м/с
влажн.,
%
обл.,
%
осадки,
мм/ч
давл.,
гПа
погр.,
м
6 марта, сб
сб601:00−13зюз479619 0.0 1007107
04:00−14зюз479618 0.0 1009102
07:00−13зюз379686 0.3 1009199
10:00−10зсз359293 0.9 1011400
13:00−9сз458099 0.1 1012718
16:00−9з468296 0.1 1012906
19:00−15з459179 0.0 101369
22:00−17з339539 0.0 101321
7 марта, вс
вс701:00−19зюз2210029 0.0 101220
04:00−20юз1110039 0.0 101320
07:00−19юз129995 0.1 101220
10:00−15юз229393 0.1 1011188
13:00−12юз238798 0.0 1011424
16:00−11ююз348998 0.1 1010477
19:00−16ююз239762 0.0 100921
22:00−16ю369953 0.1 100886
8 марта, пн
пн801:00−15ююв4997100 0.1 1005233
04:00−13ююв61195100 0.2 1002339
07:00−11ююв61294100 1.1 998622
10:00−7ю71294100 2.4 997775
13:00−6юз91286100 0.4 9971073
16:00−5юз81384100 0.5 9981011
19:00−8ююз61584100 0.0 998479
22:00−9ю479699 0.1 996223
9 марта, вт
вт901:00−11юз489698 0.1 996166
04:00−10зюз5109399 0.2 998355
07:00−11юз41093100 0.1 1000333
10:00−9з5792100 0.2 1002411
13:00−8з4690100 0.0 1004500
16:00−8з5790100 0.1 1006659
19:00−12з599399 0.1 1007238
22:00−15з369592 0.1 100997
10 марта, ср
ср1001:00−15з359590 0.0 100999
04:00−15зсз359695 0.2 1010131
07:00−17зсз3396100 0.1 101069
10:00−15сз359298 0.2 1011341
13:00−13сз348795 0.1 1012632
16:00−13сз458697 0.1 1012681
19:00−17сз3393100 0.1 101340
22:00−20сз349893 0.1 101468